| time (UTC) | temp C | wind direction | speed KPH | gust KPH | rain 1hr cm | rain 24hr cm | rain mn cm | humidity % | barometer mb |
| 20260503193909 | 15 | 263 | 8.0 | 12.9 | 0.00 | 0.00 | 0.00 | 40 | 1008.4 |
| 20260503193408 | 15 | 258 | 4.8 | 14.5 | 0.00 | 0.00 | 0.00 | 41 | 1008.4 |
| 20260503192908 | 15 | 261 | 4.8 | 8.0 | 0.00 | 0.00 | 0.00 | 41 | 1008.6 |
| 20260503192408 | 14 | 255 | 4.8 | 9.7 | 0.00 | 0.00 | 0.00 | 40 | 1008.4 |
| 20260503191908 | 15 | 262 | 8.0 | 9.7 | 0.00 | 0.00 | 0.00 | 42 | 1008.5 |
| 20260503191408 | 15 | 266 | 4.8 | 9.7 | 0.00 | 0.00 | 0.00 | 41 | 1008.7 |
| 20260503190907 | 15 | 273 | 4.8 | 9.7 | 0.00 | 0.00 | 0.00 | 42 | 1008.8 |
| 20260503190407 | 14 | 280 | 3.2 | 3.2 | 0.00 | 0.00 | 0.00 | 45 | 1008.7 |
| 20260503185908 | 14 | 276 | 3.2 | 11.3 | 0.00 | 0.00 | 0.00 | 46 | 1009.0 |
| 20260503185408 | 14 | 254 | 9.7 | 12.9 | 0.00 | 0.00 | 0.00 | 46 | 1009.1 |
| 20260503184907 | 14 | 283 | 4.8 | 19.3 | 0.00 | 0.00 | 0.00 | 44 | 1009.2 |
| 20260503184407 | 15 | 278 | 11.3 | 20.9 | 0.00 | 0.00 | 0.00 | 42 | 1009.0 |
| 20260503183908 | 15 | 275 | 4.8 | 9.7 | 0.00 | 0.00 | 0.00 | 41 | 1008.9 |
| 20260503183408 | 15 | 259 | 4.8 | 12.9 | 0.00 | 0.00 | 0.00 | 42 | 1008.8 |
| 20260503182908 | 15 | 268 | 8.0 | 11.3 | 0.00 | 0.00 | 0.00 | 41 | 1009.0 |
| 20260503182407 | 15 | 268 | 9.7 | 11.3 | 0.00 | 0.00 | 0.00 | 40 | 1009.1 |
| 20260503181909 | 15 | 268 | 12.9 | 19.3 | 0.00 | 0.00 | 0.00 | 40 | 1008.9 |
| 20260503181408 | 15 | 266 | 4.8 | 9.7 | 0.00 | 0.00 | 0.00 | 42 | 1009.1 |
| 20260503180908 | 15 | 263 | 9.7 | 12.9 | 0.00 | 0.00 | 0.00 | 39 | 1009.1 |
| 20260503180408 | 15 | 280 | 8.0 | 11.3 | 0.00 | 0.00 | 0.00 | 39 | 1009.3 |
| 20260503175907 | 15 | 260 | 4.8 | 8.0 | 0.00 | 0.00 | 0.00 | 39 | 1009.0 |
| 20260503175407 | 16 | 265 | 4.8 | 9.7 | 0.00 | 0.00 | 0.00 | 39 | 1008.9 |
| 20260503174908 | 16 | 271 | 4.8 | 9.7 | 0.00 | 0.00 | 0.00 | 37 | 1009.1 |
| 20260503174408 | 17 | 257 | 9.7 | 14.5 | 0.00 | 0.00 | 0.00 | 36 | 1009.0 |
| 20260503173908 | 16 | 279 | 3.2 | 11.3 | 0.00 | 0.00 | 0.00 | 36 | 1009.0 |
| 20260503173407 | 16 | 284 | 9.7 | 14.5 | 0.00 | 0.00 | 0.00 | 38 | 1009.1 |
| 20260503172907 | 16 | 276 | 4.8 | 11.3 | 0.00 | 0.00 | 0.00 | 37 | 1009.3 |
| 20260503172408 | 17 | 237 | 3.2 | 4.8 | 0.00 | 0.00 | 0.00 | 38 | 1009.4 |
| 20260503171908 | 16 | 282 | 3.2 | 8.0 | 0.00 | 0.00 | 0.00 | 40 | 1009.5 |
| 20260503171407 | 16 | 276 | 3.2 | 8.0 | 0.00 | 0.00 | 0.00 | 38 | 1009.2 |
| 20260503170907 | 16 | 270 | 4.8 | 8.0 | 0.00 | 0.00 | 0.00 | 40 | 1009.5 |
| 20260503170409 | 16 | 267 | 8.0 | 9.7 | 0.00 | 0.00 | 0.00 | 40 | 1009.5 |
| 20260503150908 | 12 | 280 | 3.2 | 4.8 | 0.00 | 0.00 | 0.00 | 46 | 1010.8 |
| 20260503150409 | 11 | 280 | 3.2 | 3.2 | 0.00 | 0.00 | 0.00 | 46 | 1011.1 |
| 20260503131217 | 8 | 271 | 1.6 | 3.2 | 0.00 | 0.00 | 0.00 | 55 | 1012.0 |
| 20260503130717 | 8 | 277 | 1.6 | 1.6 | 0.00 | 0.00 | 0.00 | 55 | 1011.9 |
| 20260503130217 | 8 | 271 | 1.6 | 4.8 | 0.00 | 0.00 | 0.00 | 55 | 1012.2 |
| 20260503120216 | 3 | 272 | 1.6 | 1.6 | 0.00 | 0.00 | 0.00 | 70 | 1012.3 |
| 20260503110716 | 2 | 285 | 0.0 | 3.2 | 0.00 | 0.00 | 0.00 | 74 | 1012.2 |
| 20260503110216 | 2 | 284 | 0.0 | 1.6 | 0.00 | 0.00 | 0.00 | 74 | 1012.3 |
| 20260503100217 | 0 | 284 | 0.0 | 1.6 | 0.00 | 0.00 | 0.00 | 77 | 1012.0 |
| 20260503090217 | 1 | 284 | 1.6 | 1.6 | 0.00 | 0.00 | 0.00 | 75 | 1012.5 |
| 20260503081217 | 1 | 283 | 0.0 | 1.6 | 0.00 | 0.00 | 0.00 | 77 | 1012.3 |
| 20260503080718 | 0 | 282 | 0.0 | 1.6 | 0.00 | 0.00 | 0.00 | 77 | 1012.5 |
| 20260503080216 | 0 | 282 | 0.0 | 1.6 | 0.00 | 0.00 | 0.00 | 78 | 1012.5 |
| 20260503072833 | 0 | 281 | 0.0 | 0.0 | 0.00 | 0.00 | 0.00 | 80 | 1012.5 |
| 20260503072717 | 0 | 282 | 0.0 | 0.0 | 0.00 | 0.00 | 0.00 | 80 | 1012.3 |
| 20260503072216 | 0 | 281 | 0.0 | 0.0 | 0.00 | 0.00 | 0.00 | 80 | 1012.4 |
| 20260503071717 | 0 | 282 | 0.0 | 0.0 | 0.00 | 0.00 | 0.00 | 81 | 1012.5 |
| 20260503071217 | 0 | 280 | 0.0 | 1.6 | 0.00 | 0.00 | 0.00 | 81 | 1012.7 |
| 20260503070717 | 0 | 283 | 0.0 | 0.0 | 0.00 | 0.00 | 0.00 | 81 | 1012.5 |
| 20260503070217 | 0 | 283 | 0.0 | 1.6 | 0.00 | 0.00 | 0.00 | 82 | 1012.6 |
| 20260503060216 | 0 | 282 | 0.0 | 0.0 | 0.00 | 0.00 | 0.00 | 80 | 1013.4 |
| 20260503054717 | 0 | 283 | 0.0 | 0.0 | 0.00 | 0.00 | 0.00 | 79 | 1013.4 |
| 20260503054218 | 0 | 283 | 0.0 | 0.0 | 0.00 | 0.00 | 0.00 | 79 | 1013.4 |
| 20260503053716 | 0 | 283 | 0.0 | 0.0 | 0.00 | 0.00 | 0.00 | 79 | 1013.4 |
| 20260503053216 | -1 | 283 | 0.0 | 0.0 | 0.00 | 0.00 | 0.00 | 79 | 1013.4 |
| 20260503052717 | -1 | 283 | 0.0 | 0.0 | 0.00 | 0.00 | 0.00 | 77 | 1013.4 |
| 20260503052217 | -1 | 283 | 0.0 | 0.0 | 0.00 | 0.00 | 0.00 | 77 | 1013.5 |
| 20260503051718 | -1 | 283 | 0.0 | 0.0 | 0.00 | 0.00 | 0.00 | 76 | 1013.6 |
| 20260503051218 | 0 | 283 | 0.0 | 0.0 | 0.00 | 0.00 | 0.00 | 76 | 1013.4 |
| 20260503050718 | 0 | 283 | 0.0 | 0.0 | 0.00 | 0.00 | 0.00 | 75 | 1013.4 |
| 20260503050216 | 0 | 283 | 0.0 | 0.0 | 0.00 | 0.00 | 0.00 | 73 | 1013.7 |
| 20260503045716 | 0 | 283 | 0.0 | 0.0 | 0.00 | 0.00 | 0.00 | 72 | 1013.7 |
| 20260503045217 | 0 | 283 | 0.0 | 0.0 | 0.00 | 0.00 | 0.00 | 72 | 1013.6 |
| 20260503044717 | 0 | 283 | 0.0 | 0.0 | 0.00 | 0.00 | 0.00 | 71 | 1013.8 |
| 20260503044217 | 0 | 283 | 0.0 | 0.0 | 0.00 | 0.00 | 0.00 | 70 | 1013.7 |
| 20260503043717 | 0 | 283 | 0.0 | 0.0 | 0.00 | 0.00 | 0.00 | 69 | 1013.7 |
| 20260503043216 | 0 | 283 | 0.0 | 0.0 | 0.00 | 0.00 | 0.00 | 68 | 1013.7 |
| 20260503042716 | 1 | 283 | 0.0 | 0.0 | 0.00 | 0.00 | 0.00 | 68 | 1013.8 |
| 20260503042216 | 1 | 283 | 0.0 | 0.0 | 0.00 | 0.00 | 0.00 | 68 | 1013.8 |
| 20260503041717 | 1 | 283 | 0.0 | 0.0 | 0.00 | 0.00 | 0.00 | 68 | 1014.0 |
| 20260503041217 | 1 | 283 | 0.0 | 0.0 | 0.00 | 0.00 | 0.00 | 68 | 1013.9 |
| 20260503040718 | 1 | 283 | 0.0 | 0.0 | 0.00 | 0.00 | 0.00 | 67 | 1014.0 |
| 20260503040216 | 1 | 283 | 0.0 | 0.0 | 0.00 | 0.00 | 0.00 | 66 | 1013.9 |
| 20260503035716 | 1 | 285 | 0.0 | 0.0 | 0.00 | 0.00 | 0.00 | 66 | 1013.9 |
| 20260503035217 | 1 | 285 | 0.0 | 0.0 | 0.00 | 0.00 | 0.00 | 66 | 1013.9 |
| 20260503034717 | 1 | 285 | 0.0 | 0.0 | 0.00 | 0.00 | 0.00 | 66 | 1014.0 |
| 20260503034217 | 1 | 285 | 0.0 | 0.0 | 0.00 | 0.00 | 0.00 | 65 | 1013.9 |
| 20260503033717 | 1 | 285 | 0.0 | 0.0 | 0.00 | 0.00 | 0.00 | 65 | 1013.7 |
| 20260503033218 | 1 | 285 | 0.0 | 0.0 | 0.00 | 0.00 | 0.00 | 64 | 1014.0 |
| 20260503032716 | 1 | 285 | 0.0 | 0.0 | 0.00 | 0.00 | 0.00 | 64 | 1014.1 |
| 20260503032216 | 1 | 285 | 0.0 | 0.0 | 0.00 | 0.00 | 0.00 | 64 | 1014.1 |
| 20260503031716 | 1 | 285 | 0.0 | 0.0 | 0.00 | 0.00 | 0.00 | 64 | 1014.0 |
| 20260503031217 | 1 | 285 | 0.0 | 0.0 | 0.00 | 0.00 | 0.00 | 63 | 1014.2 |
| 20260503030717 | 1 | 285 | 0.0 | 0.0 | 0.00 | 0.00 | 0.00 | 63 | 1014.1 |
| 20260503030217 | 1 | 285 | 0.0 | 0.0 | 0.00 | 0.00 | 0.00 | 63 | 1014.0 |
| 20260503025718 | 1 | 285 | 0.0 | 0.0 | 0.00 | 0.00 | 0.00 | 63 | 1014.0 |
| 20260503025218 | 1 | 285 | 0.0 | 0.0 | 0.00 | 0.00 | 0.00 | 63 | 1014.3 |
| 20260503024717 | 1 | 285 | 0.0 | 0.0 | 0.00 | 0.00 | 0.00 | 63 | 1014.4 |
| 20260503024217 | 1 | 285 | 0.0 | 0.0 | 0.00 | 0.00 | 0.00 | 62 | 1014.3 |
| 20260503023717 | 1 | 285 | 0.0 | 0.0 | 0.00 | 0.00 | 0.00 | 62 | 1014.3 |
| 20260503023217 | 1 | 285 | 0.0 | 0.0 | 0.00 | 0.00 | 0.00 | 62 | 1014.4 |
| 20260503022716 | 2 | 285 | 0.0 | 0.0 | 0.00 | 0.00 | 0.00 | 62 | 1014.4 |
| 20260503022216 | 2 | 285 | 0.0 | 0.0 | 0.00 | 0.00 | 0.00 | 61 | 1014.5 |
| 20260503021716 | 2 | 285 | 0.0 | 0.0 | 0.00 | 0.00 | 0.00 | 61 | 1014.5 |
| 20260503021217 | 2 | 285 | 0.0 | 0.0 | 0.00 | 0.00 | 0.00 | 61 | 1014.4 |
| 20260503020716 | 2 | 285 | 0.0 | 0.0 | 0.00 | 0.00 | 0.00 | 60 | 1014.4 |
| 20260503020216 | 2 | 285 | 0.0 | 0.0 | 0.00 | 0.00 | 0.00 | 60 | 1014.5 |
| 20260503015717 | 2 | 285 | 0.0 | 0.0 | 0.00 | 0.00 | 0.00 | 60 | 1014.3 |
| 20260503015217 | 2 | 285 | 0.0 | 0.0 | 0.00 | 0.00 | 0.00 | 59 | 1014.2 |
| 20260503014716 | 2 | 285 | 0.0 | 0.0 | 0.00 | 0.00 | 0.00 | 58 | 1014.3 |
| 20260503014216 | 2 | 285 | 0.0 | 0.0 | 0.00 | 0.00 | 0.00 | 58 | 1014.2 |
| 20260503013716 | 2 | 285 | 0.0 | 0.0 | 0.00 | 0.00 | 0.00 | 56 | 1014.3 |
| 20260503013217 | 2 | 285 | 0.0 | 0.0 | 0.00 | 0.00 | 0.00 | 55 | 1014.4 |
| 20260503012716 | 2 | 285 | 0.0 | 0.0 | 0.00 | 0.00 | 0.00 | 54 | 1014.4 |
| 20260503012216 | 2 | 285 | 0.0 | 0.0 | 0.00 | 0.00 | 0.00 | 54 | 1014.3 |
| 20260503011716 | 3 | 285 | 0.0 | 0.0 | 0.00 | 0.00 | 0.00 | 53 | 1014.1 |
| 20260503011216 | 3 | 285 | 0.0 | 0.0 | 0.00 | 0.00 | 0.00 | 51 | 1014.2 |
| 20260503010718 | 3 | 285 | 0.0 | 0.0 | 0.00 | 0.00 | 0.00 | 50 | 1014.2 |
| 20260503010216 | 4 | 285 | 0.0 | 0.0 | 0.00 | 0.00 | 0.00 | 49 | 1014.3 |
| 20260503005716 | 3 | 285 | 0.0 | 0.0 | 0.00 | 0.00 | 0.00 | 50 | 1014.3 |
| 20260503005217 | 4 | 285 | 0.0 | 0.0 | 0.00 | 0.00 | 0.00 | 49 | 1014.2 |
| 20260503004717 | 4 | 285 | 0.0 | 0.0 | 0.00 | 0.00 | 0.00 | 47 | 1014.1 |
| 20260503004216 | 5 | 285 | 0.0 | 0.0 | 0.00 | 0.00 | 0.00 | 46 | 1014.0 |
| 20260503003716 | 5 | 288 | 0.0 | 0.0 | 0.00 | 0.00 | 0.00 | 44 | 1014.0 |
| 20260503003218 | 5 | 288 | 1.6 | 1.6 | 0.00 | 0.00 | 0.00 | 43 | 1014.0 |
| 20260503002717 | 5 | 289 | 0.0 | 1.6 | 0.00 | 0.00 | 0.00 | 42 | 1014.0 |
| 20260503002217 | 5 | 286 | 0.0 | 0.0 | 0.00 | 0.00 | 0.00 | 43 | 1014.0 |
| 20260503001717 | 5 | 306 | 1.6 | 4.8 | 0.00 | 0.00 | 0.00 | 43 | 1014.0 |
| 20260503001216 | 5 | 307 | 3.2 | 4.8 | 0.00 | 0.00 | 0.00 | 42 | 1013.9 |
| 20260503000716 | 5 | 288 | 1.6 | 4.8 | 0.00 | 0.00 | 0.00 | 43 | 1014.0 |
| 20260503000218 | 6 | 293 | 1.6 | 4.8 | 0.00 | 0.00 | 0.00 | 40 | 1013.9 |
| 20260502235716 | 6 | 300 | 3.2 | 3.2 | 0.00 | 0.00 | 0.00 | 39 | 1014.1 |
| 20260502235216 | 6 | 299 | 1.6 | 4.8 | 0.00 | 0.00 | 0.00 | 41 | 1014.0 |
| 20260502234716 | 6 | 299 | 3.2 | 4.8 | 0.00 | 0.00 | 0.00 | 40 | 1014.1 |
| 20260502234218 | 6 | 310 | 3.2 | 4.8 | 0.00 | 0.00 | 0.00 | 39 | 1014.1 |
| 20260502233718 | 6 | 323 | 3.2 | 8.0 | 0.00 | 0.00 | 0.00 | 41 | 1013.9 |
| 20260502233218 | 6 | 276 | 3.2 | 3.2 | 0.00 | 0.00 | 0.00 | 38 | 1014.0 |
| 20260502232717 | 6 | 295 | 4.8 | 8.0 | 0.00 | 0.00 | 0.00 | 38 | 1013.8 |
| 20260502232217 | 6 | 316 | 4.8 | 8.0 | 0.00 | 0.00 | 0.00 | 38 | 1014.0 |
| 20260502231717 | 6 | 280 | 1.6 | 3.2 | 0.00 | 0.00 | 0.00 | 38 | 1013.9 |
| 20260502231217 | 6 | 287 | 3.2 | 3.2 | 0.00 | 0.00 | 0.00 | 37 | 1013.9 |
| 20260502230717 | 7 | 287 | 3.2 | 8.0 | 0.00 | 0.00 | 0.00 | 37 | 1014.0 |
| 20260502230216 | 6 | 280 | 8.0 | 9.7 | 0.00 | 0.00 | 0.00 | 39 | 1014.0 |
| 20260502225716 | 7 | 294 | 3.2 | 4.8 | 0.00 | 0.00 | 0.00 | 38 | 1014.2 |
| 20260502225217 | 7 | 266 | 3.2 | 8.0 | 0.00 | 0.00 | 0.00 | 37 | 1014.0 |
| 20260502224717 | 6 | 304 | 1.6 | 3.2 | 0.00 | 0.00 | 0.00 | 39 | 1013.9 |
| 20260502224217 | 6 | 309 | 4.8 | 8.0 | 0.00 | 0.00 | 0.00 | 38 | 1014.0 |
| 20260502223717 | 6 | 319 | 1.6 | 4.8 | 0.00 | 0.00 | 0.00 | 38 | 1014.0 |
| 20260502223217 | 6 | 316 | 4.8 | 9.7 | 0.00 | 0.00 | 0.00 | 38 | 1014.0 |
| 20260502222717 | 6 | 326 | 4.8 | 9.7 | 0.00 | 0.00 | 0.00 | 36 | 1014.0 |
| 20260502222217 | 7 | 280 | 3.2 | 8.0 | 0.00 | 0.00 | 0.00 | 35 | 1014.2 |
| 20260502221716 | 7 | 307 | 8.0 | 11.3 | 0.00 | 0.00 | 0.00 | 36 | 1014.0 |
| 20260502221216 | 6 | 0 | 9.7 | 11.3 | 0.00 | 0.00 | 0.00 | 38 | 1013.9 |
| 20260502220716 | 6 | 10 | 9.7 | 12.9 | 0.00 | 0.00 | 0.00 | 38 | 1014.1 |
| 20260502220216 | 7 | 0 | 8.0 | 12.9 | 0.00 | 0.00 | 0.00 | 39 | 1014.1 |
| 20260502215717 | 7 | 293 | 1.6 | 3.2 | 0.00 | 0.00 | 0.00 | 39 | 1013.9 |
| 20260502215217 | 7 | 317 | 1.6 | 4.8 | 0.00 | 0.00 | 0.00 | 36 | 1014.2 |
| 20260502214717 | 7 | 285 | 8.0 | 9.7 | 0.00 | 0.00 | 0.00 | 36 | 1014.0 |
| 20260502214217 | 7 | 278 | 3.2 | 4.8 | 0.00 | 0.00 | 0.00 | 38 | 1013.9 |
| 20260502213717 | 6 | 21 | 11.3 | 14.5 | 0.00 | 0.00 | 0.00 | 39 | 1014.0 |
| 20260502213217 | 6 | 315 | 4.8 | 9.7 | 0.00 | 0.00 | 0.00 | 43 | 1014.1 |
| 20260502212717 | 7 | 348 | 4.8 | 9.7 | 0.00 | 0.00 | 0.00 | 42 | 1014.0 |
| 20260502212217 | 7 | 326 | 4.8 | 8.0 | 0.00 | 0.00 | 0.00 | 41 | 1014.0 |
| 20260502211717 | 7 | 320 | 3.2 | 4.8 | 0.00 | 0.00 | 0.00 | 41 | 1014.4 |
| 20260502211217 | 6 | 321 | 3.2 | 8.0 | 0.00 | 0.00 | 0.00 | 44 | 1013.9 |
| 20260502210716 | 7 | 280 | 4.8 | 4.8 | 0.00 | 0.00 | 0.00 | 39 | 1013.9 |
| 20260502210216 | 7 | 297 | 3.2 | 4.8 | 0.00 | 0.00 | 0.00 | 45 | 1014.0 |
| 20260502205716 | 7 | 311 | 4.8 | 9.7 | 0.00 | 0.00 | 0.00 | 41 | 1014.0 |
| 20260502205216 | 7 | 291 | 3.2 | 8.0 | 0.00 | 0.00 | 0.00 | 43 | 1014.2 |
| 20260502204716 | 7 | 291 | 3.2 | 4.8 | 0.00 | 0.00 | 0.00 | 44 | 1014.1 |
| 20260502204216 | 7 | 282 | 1.6 | 3.2 | 0.00 | 0.00 | 0.00 | 41 | 1013.8 |
| 20260502203716 | 7 | 270 | 3.2 | 8.0 | 0.00 | 0.00 | 0.00 | 42 | 1014.1 |
| 20260502203217 | 7 | 333 | 4.8 | 9.7 | 0.00 | 0.00 | 0.00 | 42 | 1014.1 |
| 20260502202717 | 7 | 333 | 3.2 | 12.9 | 0.00 | 0.00 | 0.00 | 43 | 1014.3 |
| 20260502202217 | 7 | 275 | 3.2 | 4.8 | 0.00 | 0.00 | 0.00 | 41 | 1014.0 |
| 20260502201716 | 6 | 302 | 1.6 | 3.2 | 0.00 | 0.00 | 0.00 | 47 | 1014.1 |
| 20260502201216 | 6 | 326 | 4.8 | 8.0 | 0.00 | 0.00 | 0.00 | 44 | 1014.2 |
| 20260502200716 | 6 | 318 | 3.2 | 4.8 | 0.00 | 0.00 | 0.00 | 44 | 1014.4 |
| 20260502200216 | 6 | 278 | 8.0 | 9.7 | 0.00 | 0.00 | 0.00 | 43 | 1014.3 |
| 20260502195716 | 7 | 286 | 3.2 | 8.0 | 0.00 | 0.00 | 0.00 | 45 | 1014.3 |
| 20260502195217 | 7 | 310 | 4.8 | 8.0 | 0.00 | 0.00 | 0.00 | 46 | 1014.6 |
| 20260502194716 | 7 | 257 | 3.2 | 8.0 | 0.00 | 0.00 | 0.00 | 47 | 1014.6 |